Tracking 20382 objects as of 24-Feb-2020
HD Live streaming from Space Station
objects crossing your sky now
Track the group of recently launched Starlink satellites

DELTA 1 R/B(2)

Track DELTA 1 R/B(2) now!


NORAD ID: 15206
Int'l Code: 1984-088F
Perigee: 602.0 km
Apogee: 48,832.8 km
Inclination: 27.9 °
Period: 909.2 minutes
Semi major axis: 31088 km
RCS: 2.318 m2 (large)
Launch date: August 16, 1984
Source: United States (US)
Launch site: AIR FORCE EASTERN TEST RANGE (AFETR)

Note: This is a ROCKET BODY
aabbcc
Your satellite tracking list
Your tracking list is empty




NASA's NSSDC Master Catalog

Two Line Element Set (TLE):
1 15206U 84088F   20054.42922029 -.00000284 +00000-0 -56185-2 0  9996
2 15206 027.9133 285.6417 7757036 144.8205 307.6657 01.58381581201886
Source of the keplerian elements: AFSPC